630  
ASUS43 KDMX 211106  
RWRIA  
 
WEATHER ROUNDUP FOR IOWA  
NATIONAL WEATHER SERVICE DES MOINES IA  
500 AM CST TUE NOV 21 2017  
 
NOTE: "FAIR" INDICATES FEW OR NO CLOUDS BELOW 12,000 FEET WITH NO  
SIGNIFICANT WEATHER AND/OR S TO VISIBILITY
.  
 
* - THESE STATIONS ARE NOT NWS STATIONS...THUS NOT UNDER NWS  
QUALITY CONTROL. THEY ALSO DO NOT REPORT WEATHER SUCH  
AS PRECIPITATION OR FOG.
 
 
IAZ001>003-012>014-020>022-031>034-043>046-211200-  
NORTHWEST IOWA  
 
CITY SKY/WX TMP DP RH WIND PRES REMARKS
 
CARROLL * CLOUDY 41 21 45 NW23G33 29.83R  
CHEROKEE * CLOUDY 39 18 42 NW12G20 29.89R WCI 31  
DENISON * LGT RAIN 39 21 48 N23G30 29.88R WCI 29  
LE MARS * CLOUDY 39 19 45 NW18G25 29.91R WCI 30  
ORANGE CITY * CLOUDY 39 21 48 NW18 29.90R WCI 30  
SHELDON * CLOUDY 36 19 51 NW18 29.87R WCI 25  
SIOUX CITY CLOUDY 40 21 46 NW16 29.92R WCI 31  
SPENCER CLOUDY 37 18 46 NW20 29.85R WCI 27  
STORM LAKE * CLOUDY 37 18 44 NW18G33 29.86R WCI 27  

 
 
IAZ055>058-069>071-079>083-090>094-211200-  
SOUTHWEST IOWA  
 
CITY SKY/WX TMP DP RH WIND PRES REMARKS
 
ATLANTIC * CLOUDY 43 27 52 N16 29.84R  
AUDUBON * CLOUDY 41 21 45 N17G23 29.84R  
CLARINDA * N/A 34 32 93 N9 29.85R WCI 26  
COUNCIL BLFS * CLOUDY 45 27 49 N17G26 29.85R  
CRESTON * CLOUDY 43 28 56 N12 29.82R  
HARLAN * CLOUDY 41 23 48 N22G35 29.89R  
LAMONI CLOUDY 41 30 65 NW8 29.78R  
RED OAK * CLOUDY 41 30 65 N9 29.84R  
SHENANDOAH * CLOUDY 41 30 65 N9 29.86R  

 
 
IAZ047>049-059>061-072>074-084-211200-  
CENTRAL IOWA  
 
CITY SKY/WX TMP DP RH WIND PRES REMARKS
 
AMES CLOUDY 40 22 48 N20G29 29.78R WCI 30  
ANKENY * CLOUDY 43 21 42 NW20G30 29.80R  
BOONE * CLOUDY 39 19 45 NW22G29 29.78R WCI 29  
CHARITON * CLOUDY 43 30 61 N13 29.77R  
DES MOINES CLOUDY 44 24 45 N14 29.79R  
GRINNELL* CLOUDY 40 29 64 NW8 29.76R WCI 34  
KNOXVILLE * CLOUDY 43 23 45 N16 29.76R  
MARSHALLTOWN CLOUDY 39 22 50 NW17G26 29.75R WCI 30  
NEWTON * CLOUDY 41 25 52 N14 29.76R  
PELLA * CLOUDY 41 30 65 N9 29.79R  
PERRY * MOCLDY 40 19 44 N17G24 29.82R WCI 31  

 
 
IAZ004>006-015-016-023>025-035-036-211200-  
NORTH CENTRAL IOWA  
 
CITY SKY/WX TMP DP RH WIND PRES REMARKS
 
ALGONA * CLOUDY 37 18 44 NW14G24 29.81R WCI 29  
CLARION * N/A 36 21 55 NW12 29.81R WCI 27  
ESTHERVILLE CLOUDY 35 17 47 NW28G39 29.83R WCI 22  
FORT DODGE * CLOUDY 38 19 46 NW9G16 29.82R WCI 31  
MASON CITY CLOUDY 35 14 42 NW23G32 29.77R WCI 23  
FOREST CITY * CLOUDY 36 18 48 NW22G31 29.77R WCI 24  
WEBSTER CITY * CLOUDY 37 19 48 NW21 29.79R WCI 27  
IOWA FALLS * CLOUDY 38 20 49 NW23 29.78R WCI 27  

 
 
IAZ007>011-017>019-026>030-037>042-050>054-066-211200-  
NORTHEAST IOWA  
 
CITY SKY/WX TMP DP RH WIND PRES REMARKS
 
CEDAR RAPIDS CLOUDY 40 31 70 NW10 29.72R WCI 33  
CHARLES CITY * CLOUDY 37 14 38 NW16G26 29.74R WCI 28  
CLINTON * CLOUDY 39 32 76 W12 29.68R WCI 32  
DECORAH * CLOUDY 37 14 38 NW14G29 29.66R WCI 29  
DUBUQUE CLOUDY 39 29 67 NW9 29.67R WCI 33  
MONTICELLO * CLOUDY 41 28 60 W5G13 29.70R  
OELWEIN * CLOUDY 37 23 56 NW21G26 29.71R WCI 27  
WATERLOO CLOUDY 38 19 46 NW17G24 29.73R WCI 28  

 
 
IAZ064-065-067-068-078-211200-  
EAST CENTRAL IOWA  
 
CITY SKY/WX TMP DP RH WIND PRES REMARKS
 
DAVENPORT PTCLDY 40 31 70 W9 29.71R WCI 34  
IOWA CITY CLOUDY 41 31 67 W8 29.74R  
MT. PLEASANT * CLOUDY 39 31 72 SW8 29.73R WCI 34  
MUSCATINE * MOCLDY 45 32 61 W7 29.73R  
QUAD CITIES PTCLDY 41 30 65 W7 29.69S  

 
 
IAZ062-063-075>077-085>089-095>099-211200-  
SOUTHEAST IOWA  
 
CITY SKY/WX TMP DP RH WIND PRES REMARKS
 
BURLINGTON PTCLDY 41 33 73 SW8 29.71S  
FAIRFIELD * CLOUDY 43 30 61 W9 29.74R  
FORT MADISON * PTCLDY 46 34 61 SW8 29.73R  
KEOKUK * CLOUDY 43 32 65 SW9 29.73R  
OSKALOOSA * N/A 41 32 68 NW9 29.76R  
OTTUMWA CLOUDY 44 30 57 NW15 29.75R  
WASHINGTON * CLOUDY 43 32 65 W12 29.75R  

 
 
ABBREVIATIONS USED IN REMARKS  
TC - TEMPERATURES IN CELSIUS  
WCI - WIND CHILL INDEX  
HX - HEAT INDEX  
VSB - VISIBILITY  

 
 
 
 
CLICK HERE TO GO TO PREVIOUS BULLETINS.

The Nexlab IA Page Main Text Page